Katta Gehege Affenhaus Messungen

Zurück zum Überblick

Zeitpunkt Temperatur Luftfeuchte
28.05.2020 19:48:51 24,3 C 44,0%
28.05.2020 19:41:50 24,5 C 43,0%
28.05.2020 19:34:48 24,5 C 43,0%
28.05.2020 19:27:47 24,6 C 43,0%
28.05.2020 19:20:45 24,7 C 43,0%
28.05.2020 19:13:43 24,8 C 43,0%
28.05.2020 19:06:41 24,9 C 43,0%
28.05.2020 18:59:40 24,9 C 44,0%
28.05.2020 18:52:37 25,0 C 44,0%
28.05.2020 18:45:36 25,0 C 43,0%
28.05.2020 18:38:34 25,1 C 44,0%
28.05.2020 18:31:32 25,0 C 44,0%
28.05.2020 18:24:30 25,0 C 44,0%
28.05.2020 18:17:29 25,0 C 44,0%
28.05.2020 18:10:26 25,1 C 44,0%
28.05.2020 18:03:23 25,0 C 44,0%
28.05.2020 17:56:21 24,9 C 44,0%
28.05.2020 17:49:20 24,9 C 45,0%
28.05.2020 17:42:18 24,8 C 45,0%
28.05.2020 17:35:16 24,7 C 45,0%
28.05.2020 17:28:13 24,6 C 45,0%
28.05.2020 17:21:11 24,6 C 45,0%
28.05.2020 17:14:09 24,4 C 46,0%
28.05.2020 17:07:09 24,3 C 46,0%
28.05.2020 17:00:07 24,2 C 46,0%
28.05.2020 16:53:06 24,1 C 47,0%
28.05.2020 16:46:04 24,0 C 47,0%
28.05.2020 16:39:02 24,0 C 47,0%
28.05.2020 16:31:59 23,9 C 47,0%
28.05.2020 16:24:57 23,7 C 47,0%
28.05.2020 16:17:55 23,6 C 48,0%
28.05.2020 16:10:55 23,5 C 48,0%
28.05.2020 16:03:54 23,4 C 48,0%
28.05.2020 15:56:52 23,4 C 48,0%
28.05.2020 15:49:49 23,4 C 48,0%
28.05.2020 15:42:48 23,4 C 48,0%
28.05.2020 15:35:46 23,3 C 48,0%
28.05.2020 15:28:43 23,2 C 48,0%
28.05.2020 15:21:39 23,1 C 48,0%
28.05.2020 15:14:38 23,0 C 48,0%
28.05.2020 15:07:35 22,9 C 49,0%
28.05.2020 15:00:34 22,8 C 49,0%
28.05.2020 14:53:33 22,7 C 49,0%
28.05.2020 14:46:31 22,6 C 49,0%
28.05.2020 14:39:30 22,5 C 50,0%
28.05.2020 14:32:26 22,3 C 49,0%
28.05.2020 14:25:24 22,2 C 50,0%
28.05.2020 14:18:22 22,2 C 50,0%
28.05.2020 14:11:20 22,1 C 50,0%
28.05.2020 14:04:19 22,1 C 50,0%
28.05.2020 13:57:15 22,0 C 50,0%
28.05.2020 13:50:12 22,0 C 50,0%
28.05.2020 13:43:10 21,9 C 50,0%
28.05.2020 13:36:09 21,9 C 50,0%
28.05.2020 13:29:07 21,8 C 50,0%
28.05.2020 13:22:04 21,8 C 50,0%
28.05.2020 13:15:04 21,8 C 50,0%
28.05.2020 13:08:03 21,7 C 50,0%
28.05.2020 13:01:00 21,6 C 50,0%
28.05.2020 12:53:58 21,6 C 50,0%
28.05.2020 12:46:58 21,5 C 51,0%
28.05.2020 12:39:54 21,5 C 51,0%
28.05.2020 12:32:52 21,4 C 51,0%
28.05.2020 12:25:49 21,4 C 52,0%
28.05.2020 12:18:45 21,3 C 52,0%
28.05.2020 12:11:42 21,2 C 52,0%
28.05.2020 12:04:42 21,2 C 52,0%
28.05.2020 11:57:40 21,1 C 52,0%
28.05.2020 11:50:40 21,1 C 52,0%
28.05.2020 11:43:39 21,0 C 52,0%
28.05.2020 11:36:36 20,9 C 52,0%
28.05.2020 11:29:33 20,8 C 53,0%
28.05.2020 11:22:29 20,8 C 53,0%
28.05.2020 11:15:27 20,7 C 54,0%
28.05.2020 11:08:24 20,7 C 54,0%
28.05.2020 11:01:22 20,6 C 54,0%
28.05.2020 10:54:21 20,5 C 54,0%
28.05.2020 10:47:20 20,4 C 54,0%
28.05.2020 10:40:19 20,4 C 54,0%
28.05.2020 10:33:14 20,4 C 54,0%
28.05.2020 10:26:13 20,4 C 54,0%
28.05.2020 10:19:11 20,2 C 54,0%
28.05.2020 10:12:10 20,2 C 54,0%
28.05.2020 10:05:08 20,2 C 54,0%
28.05.2020 09:58:06 20,3 C 54,0%
28.05.2020 09:51:04 20,2 C 54,0%
28.05.2020 09:44:04 20,2 C 54,0%
28.05.2020 09:37:01 20,2 C 54,0%
28.05.2020 09:29:58 20,3 C 54,0%
28.05.2020 09:22:56 20,3 C 54,0%
28.05.2020 09:15:55 20,3 C 54,0%
28.05.2020 09:08:52 20,1 C 54,0%
28.05.2020 09:01:51 19,9 C 54,0%
28.05.2020 08:54:48 19,7 C 54,0%
28.05.2020 08:47:46 19,7 C 54,0%
28.05.2020 08:40:43 19,6 C 54,0%
28.05.2020 08:33:40 19,7 C 54,0%
28.05.2020 08:26:39 19,7 C 54,0%
28.05.2020 08:19:36 19,8 C 54,0%
28.05.2020 08:12:37 19,8 C 54,0%
28.05.2020 08:05:35 19,8 C 54,0%
28.05.2020 07:58:32 19,8 C 54,0%
28.05.2020 07:51:30 19,7 C 54,0%
28.05.2020 07:44:28 19,5 C 55,0%
28.05.2020 07:37:25 19,6 C 55,0%
28.05.2020 07:30:24 19,6 C 55,0%
28.05.2020 07:23:23 19,6 C 55,0%
28.05.2020 07:16:20 19,6 C 55,0%
28.05.2020 07:09:17 19,6 C 55,0%
28.05.2020 07:02:15 19,6 C 55,0%
28.05.2020 06:55:14 19,6 C 55,0%
28.05.2020 06:48:11 19,6 C 55,0%
28.05.2020 06:41:08 19,7 C 55,0%
28.05.2020 06:34:06 19,7 C 55,0%
28.05.2020 06:27:04 19,5 C 55,0%
28.05.2020 06:20:02 19,4 C 55,0%
28.05.2020 06:12:59 19,4 C 55,0%
28.05.2020 06:05:58 19,4 C 55,0%
28.05.2020 05:58:55 19,5 C 55,0%
28.05.2020 05:51:53 19,5 C 55,0%
28.05.2020 05:44:51 19,6 C 54,0%
28.05.2020 05:37:50 19,6 C 54,0%
28.05.2020 05:30:46 19,7 C 54,0%
28.05.2020 05:23:44 19,8 C 54,0%
28.05.2020 05:16:41 19,8 C 54,0%
28.05.2020 05:09:38 19,9 C 54,0%
28.05.2020 05:02:37 19,7 C 54,0%
28.05.2020 04:55:35 19,5 C 54,0%
28.05.2020 04:48:34 19,5 C 54,0%
28.05.2020 04:41:33 19,5 C 54,0%
28.05.2020 04:34:30 19,6 C 54,0%
28.05.2020 04:27:29 19,6 C 54,0%
28.05.2020 04:20:25 19,6 C 54,0%
28.05.2020 04:13:23 19,7 C 53,0%
28.05.2020 04:06:21 19,7 C 53,0%
28.05.2020 03:59:18 19,8 C 53,0%
28.05.2020 03:52:18 19,8 C 53,0%
28.05.2020 03:45:17 19,9 C 53,0%
28.05.2020 03:38:15 19,9 C 53,0%
28.05.2020 03:31:12 19,9 C 52,0%
28.05.2020 03:24:10 20,0 C 52,0%
28.05.2020 03:17:09 20,0 C 52,0%
28.05.2020 03:10:06 20,1 C 52,0%
28.05.2020 03:03:05 20,1 C 52,0%
28.05.2020 02:56:04 20,2 C 52,0%
28.05.2020 02:49:00 20,2 C 52,0%
28.05.2020 02:41:58 20,2 C 52,0%
28.05.2020 02:34:56 20,3 C 52,0%
28.05.2020 02:27:55 20,3 C 51,0%
28.05.2020 02:20:54 20,4 C 51,0%
28.05.2020 02:13:52 20,4 C 51,0%
28.05.2020 02:06:50 20,5 C 51,0%
28.05.2020 01:59:47 20,5 C 51,0%
28.05.2020 01:52:45 20,6 C 51,0%
28.05.2020 01:45:43 20,7 C 51,0%
28.05.2020 01:38:42 20,7 C 51,0%
28.05.2020 01:31:40 20,8 C 50,0%
28.05.2020 01:24:37 20,8 C 50,0%
28.05.2020 01:17:36 20,9 C 50,0%
28.05.2020 01:10:36 21,0 C 50,0%
28.05.2020 01:03:34 21,1 C 50,0%
28.05.2020 00:56:33 21,1 C 50,0%
28.05.2020 00:49:31 21,1 C 50,0%
28.05.2020 00:42:29 21,2 C 50,0%
28.05.2020 00:35:28 21,4 C 50,0%
28.05.2020 00:28:25 21,4 C 50,0%
28.05.2020 00:21:22 21,5 C 50,0%
28.05.2020 00:14:21 21,5 C 49,0%
28.05.2020 00:07:20 21,7 C 49,0%
28.05.2020 00:00:17 21,7 C 49,0%